Weather in Zidky

Ukraine / Kharkiv Region     49°41′42″N   36°23′55″E
temp.,
°C
wind,
m/s
gust,
m/s
humid.,
%
clouds,
%
prec.,
mm/h
press.,
hPa
HPBL,
m
13 june, sun
sun1300:00+15wnw229315 0.1 101015
03:00+14wsw22930 0.1 101016
06:00+15sw12930 0.0 100991
09:00+20ssw237695 0.2 1009483
12:00+23sw4562100 1.8 10101240
15:00+25sw465191 2.1 10092285
18:00+21s367312 0.1 1009389
21:00+17ssw118219 0.5 101011
14 june, mon
mon1400:00+15se22845 0.0 101024
03:00+14se239129 0.0 101144
06:00+16se25918 0.1 1012137
09:00+21se347112 0.1 1013518
12:00+24sse45575 0.0 10131417
15:00+25ese345438 0.1 10131791
18:00+24se2365100 0.1 10131008
21:00+19ne2283100 0.9 101321
15 june, tue
tue1500:00+17ne228859 0.0 101314
03:00+16nne22903 0.0 101321
06:00+17nne25911 0.0 1013128
09:00+22ne34780 0.6 1013442
12:00+25ne345919 0.7 10121448
15:00+24ene44685 2.5 10111148
18:00+23ene46795 1.8 1010621
21:00+19e3589100 2.8 101077
16 june, wed
wed1600:00+17ene359595 0.6 1010106
03:00+16ene349297 0.6 101065
06:00+16e25919 0.0 1011143
09:00+21e247122 0.0 1011461
12:00+25ene345790 0.0 10101310
15:00+26ne4557100 0.5 10101658
18:00+22ene3583100 2.8 1010199
21:00+18ese2294100 7.4 101136
17 june, thu
thu1700:00+17nw2296100 3.1 101269
03:00+17n379788 3.2 1012205
06:00+17ne51197100 1.1 1012419
09:00+20ene598788 1.3 1013745
12:00+22ene5780100 1.3 1014996
15:00+23ene5777100 3.5 1015938
18:00+22ene5885100 0.9 1015757
21:00+19ne41194100 1.5 1016478